Weather Roundup
Issued by NWS

Home | Current Version | Previous Version | Text Only | Print | Product List | Glossary On
Versions: 1 2 3 4 5 6 7 8 9 10 11 12 13 14 15 16 17 18 19 20 21 22 23 24 25 26 27 28 29 30 31 32 33 34 35 36 37 38 39 40 41 42 43 44 45 46 47 48 49 50
000
NZUS93 KARX 221210
HRRWXR

CURRENT HOURLY OBSERVATIONS ACROSS
MUCH OF THE UPPER MISSISSIPPI VALLEY
NATIONAL WEATHER SERVICE LA CROSSE WI
700 AM CDT WED OCT 22 2014


...SOUTHEAST MINNESOTA...


CITY           SKY/WX    TMP DP  RH WIND       PRES   REMARKS
ROCHESTER      CLEAR     37  35  92 S13       30.25S WCI  29
ROCHESTER/MAYO FAIR      39  34  81 SE10      30.25S WCI  32
WINONA         CLEAR     37  37 100 CALM      30.30S
AUSTIN         CLEAR     37  36  93 S7        30.23S WCI  32
ALBERT LEA     CLEAR     39  37  93 S12G18    30.21S WCI  32
DODGE CENTER   PTCLDY    37  36  93 S10       30.23S WCI  30
PRESTON        CLEAR     35  33  93 SE8       30.27S WCI  29
OWATONNA       CLEAR     41  36  81 SE16G22   30.21R
FARIBAULT      CLEAR     41  37  87 S9        30.21S
$$

...ELSEWHERE IN MINNESOTA...


CITY           SKY/WX    TMP DP  RH WIND       PRES   REMARKS
MINNEAPOLIS    PTCLDY    39  35  86 SE9       30.21S WCI  33
INTNL FALLS    CLEAR     42  36  79 S9        30.05F
DULUTH         CLEAR     39  33  79 SE10      30.19F WCI  32
RED WING       CLEAR     41  36  81 SE10      30.25R
REDWOOD FALLS  MOCLDY    47  38  71 SE23      30.07F
MANKATO        PTCLDY    43  34  70 SE16      30.17S
WORTHINGTON    MOCLDY    48  39  71 S17G26    30.07F
FAIRMONT       PTCLDY    45  36  70 SE18      30.15S
$$

...SOUTHWEST WISCONSIN...


CITY           SKY/WX    TMP DP  RH WIND       PRES   REMARKS
LA CROSSE      CLEAR     36  33  89 SE6       30.31R WCI  31
PRAIRIE DU CHI CLEAR     34  32  92 E3        30.33R
BOSCOBEL       FOG       33  32  96 CALM      30.34R VSB 1/4
LONE ROCK      FOG       31  27  85 E5        30.35R VSB 1/2 WCI  26
PLATTEVILLE    PTCLDY    34  32  95 E8        30.33R WCI  27
FORT MC COY    CLEAR     26  25  96 CALM      30.32S
CAMP DOUGLAS   CLEAR     23  23 100 SE2       30.33S
VIROQUA        FAIR      34  34 100 SE7       30.30S WCI  28
WIS DELLS      FOG       27  26  97 CALM      30.34S VSB 1/4
$$

...ELSEWHERE IN WISCONSIN...


CITY           SKY/WX    TMP DP  RH WIND       PRES   REMARKS
MILWAUKEE      PTCLDY    35  32  88 CALM      30.34R
MADISON        FOG       29  27  92 CALM      30.35R VSB 1/2
GREEN BAY      FOG       32  32 100 CALM      30.36S VSB<1/4
EAU CLAIRE     CLEAR     37  33  85 SE6       30.28S WCI  32
BLACK RVR FLS  FAIR      22  22 100 CALM      30.32R
MEDFORD        CLEAR     32  31  97 SE5       30.31R WCI  27
WAUSAU         CLEAR     30  28  92 CALM      30.33R
WIS RAPIDS     CLEAR     27  25  92 E3        30.36R
MARSHFIELD     CLEAR     30  28  92 E7        30.32S WCI  23
RICE LAKE      CLEAR     37  33  87 SE10      30.28S WCI  29
$$

...NORTHEAST IOWA...


CITY           SKY/WX    TMP DP  RH WIND       PRES   REMARKS
DECORAH        CLEAR     36  36 100 SE6       30.29R WCI  31
MASON CITY     PTCLDY    38  37  97 SE12      30.24R WCI  30
CHARLES CITY   CLEAR     37  36  93 SE9G16    30.27S WCI  31
OELWEIN        CLEAR     36  36 100 SE9       30.30R WCI  29
$$

...ELSEWHERE IN IOWA...


CITY           SKY/WX    TMP DP  RH WIND       PRES   REMARKS
DES MOINES     PTCLDY    44  38  79 SE10      30.23R
IOWA CITY      CLEAR     36  34  92 CALM      30.32R
FORT DODGE     CLOUDY    45  37  76 SE9       30.20R
$$

...NORTHERN ILLINOIS...


CITY           SKY/WX    TMP DP  RH WIND       PRES   REMARKS
CHICAGO-OHARE  PTCLDY    41  38  89 NW5       30.32R
CHICAGO-MIDWAY MOCLDY    45  38  76 CALM      30.32R
MOLINE         PTCLDY    34  31  88 E3        30.32R
ROCKFORD       CLEAR     33  30  88 CALM      30.35R
PEORIA         CLEAR     39  35  86 NE5       30.32R
$$

NOTE: "FAIR" INDICATES FEW OR NO CLOUDS BELOW 12,000 FEET WITH NO
SIGNIFICANT WEATHER AND/OR OBSTRUCTIONS TO VISIBILITY. WIND
SPEEDS ARE IN MILES-PER-HOUR.



USA.gov is the U.S. government's official web portal to all federal, state and local government web resources and services.